Location: Pl�tzky
(52.0521°N, 11.8020°E)
Time: 21:24:18
(UTC+00:00)

Meteor 2-2 Rocket - Pass Details

Date: 22 November 2019
Orbit: 852 x 929 km, 81.3° (Epoch: 06 December)

Event Time Altitude Azimuth Distance (km) Brightness Sun altitude
Rises 15:47:36 0° 183° (S) 3,488 7.8 -5.5°
Reaches altitude 10° 15:50:04 10° 181° (S) 2,541 7.1 -5.8°
Maximum altitude 15:55:48 71° 99° (E) 924 4.3 -6.6°
Drops below altitude 10° 16:01:28 10° 16° (NNE) 2,513 6.3 -7.4°
Sets 16:03:53 0° 15° (NNE) 3,447 7.0 -7.7°
